Weather History for Big Piney, WY

Change the Weather History Date:

Monday, February 20, 2012

  Actual Average Record
Temperature  
Mean Temperature 8 °F 16 °F  
Max Temperature 23 °F 30 °F 42 °F (1981)
Min Temperature -6 °F 2 °F -27 °F (2006)
Degree Days  
Heating Degree Days 56 49  
Month to date heating degree days 1035  
Since 1 July heating degree days 7148  
Cooling Degree Days 0 0  
Month to date cooling degree days 0  
Year to date cooling degree days 0  
Moisture  
Dew Point 1 °F    
Average Humidity 70    
Maximum Humidity 87    
Minimum Humidity 50    
Precipitation  
Precipitation 0.00 in 0.01 in 0.33 in (1996)
Month to date precipitation 0.25  
Year to date precipitation 0.56  
Sea Level Pressure  
Sea Level Pressure 30.09 in    
Wind  
Wind Speed 7 mph (ENE)    
Max Wind Speed 14 mph    
Max Gust Speed -    
Visibility 10 miles    
Events      
T = Trace of Precipitation, MM = Missing Value Source: NWS Daily Summary

Daily Weather History Graph

Daily Weather History Graph

Search for Another Location

Airport:

Trip Planner

Search our weather history database for the weather conditions in past years. The results will help you decide how hot, cold, wet, or windy it might be!

Date:

Astronomy

Feb. 20, 2012 Rise Set
Actual Time 7:10 AM MST 5:58 PM MST
Civil Twilight 6:42 AM MST 6:27 PM MST
Nautical Twilight 6:09 AM MST 6:59 PM MST
Astronomical Twilight 5:36 AM MST 7:32 PM MST
Moon 6:10 AM MST (2/20) 5:06 PM MST (2/20)
Length of Visible Light 11h 44m
Length of Day
10h 47m
Waning Crescent, 1% of the Moon is Illuminated
Feb 20
Waning Crescent
Feb 21
New
Feb 29
First Quarter
Mar 8
Full
Mar 14
Last Quarter

Hourly Weather History & Observations

Time (MST) Temp. Windchill Dew Point Humidity Pressure Visibility Wind Dir Wind Speed Gust Speed Precip Events Conditions
12:53 AM 9.0 °F -7.3 °F 1.0 °F 70% 29.96 in 10.0 mi North 13.8 mph - N/A   Clear
1:53 AM 3.0 °F -10.5 °F -2.0 °F 80% 30.01 in 10.0 mi North 8.1 mph - N/A   Clear
2:53 AM 1.9 °F -11.8 °F -2.9 °F 80% 30.03 in 10.0 mi NNW 8.1 mph - N/A   Clear
3:53 AM 1.0 °F -14.0 °F -4.0 °F 79% 30.02 in 10.0 mi NNE 9.2 mph - N/A   Clear
4:53 AM 1.0 °F -8.7 °F -4.0 °F 79% 30.06 in 10.0 mi SW 4.6 mph - N/A   Clear
5:53 AM -0.0 °F - -6.0 °F 76% 30.09 in 10.0 mi Calm Calm - N/A   Clear
6:53 AM -6.0 °F -14.7 °F -9.0 °F 87% 30.14 in 10.0 mi WNW 3.5 mph - N/A   Clear
7:53 AM -0.9 °F - -6.0 °F 79% 30.14 in 10.0 mi Calm Calm - N/A   Clear
8:53 AM 3.0 °F -6.4 °F -2.9 °F 76% 30.16 in 10.0 mi East 4.6 mph - N/A   Clear
9:53 AM 10.9 °F 2.9 °F 1.0 °F 64% 30.13 in 10.0 mi East 4.6 mph - N/A   Clear
10:53 AM 16.0 °F 8.8 °F 5.0 °F 62% 30.12 in 10.0 mi ESE 4.6 mph - N/A   Clear
11:53 AM 19.9 °F 11.1 °F 8.1 °F 60% 30.09 in 10.0 mi East 6.9 mph - N/A   Clear
12:53 PM 21.9 °F 15.7 °F 7.0 °F 53% 30.07 in 10.0 mi ESE 4.6 mph - N/A   Clear
1:53 PM 21.9 °F 17.2 °F 6.1 °F 51% 30.08 in 10.0 mi Variable 3.5 mph - N/A   Clear
2:53 PM 21.9 °F 15.7 °F 7.0 °F 53% 30.09 in 10.0 mi East 4.6 mph - N/A   Clear
3:53 PM 23.0 °F 18.4 °F 7.0 °F 50% 30.09 in 10.0 mi ESE 3.5 mph - N/A   Partly Cloudy
4:53 PM 21.9 °F 15.7 °F 7.0 °F 53% 30.09 in 10.0 mi SSE 4.6 mph - N/A   Clear
5:53 PM 18.0 °F - 7.0 °F 62% 30.13 in 10.0 mi Calm Calm - N/A   Clear
6:53 PM 12.0 °F - 3.9 °F 70% 30.21 in 10.0 mi Calm Calm - N/A   Partly Cloudy
7:53 PM 12.9 °F 6.9 °F 5.0 °F 71% 30.19 in 10.0 mi Variable 3.5 mph - N/A   Mostly Cloudy
8:53 PM 6.8 °F -2.0 °F 1.4 °F 79% 29.95 in 10.0 mi East 4.6 mph - N/A   Partly Cloudy
9:53 PM 6.1 °F -7.8 °F -0.0 °F 76% 30.16 in 10.0 mi East 9.2 mph - N/A   Mostly Cloudy
10:53 PM 6.1 °F -5.6 °F 1.0 °F 80% 30.13 in 10.0 mi ENE 6.9 mph - N/A   Overcast
11:53 PM 3.0 °F -4.4 °F -0.9 °F 84% 30.12 in 10.0 mi NNE 3.5 mph - N/A   Partly Cloudy